This is the latest recevied weather packets stored in our database for station/object KC5EZZ-2. If no packets are shown the sender has not sent any weather packets the latest 10 day(s).
| Time | Temp. | Humidity | Pressure | Rain* | Wind** | Luminosity | Snow |
|---|---|---|---|---|---|---|---|
| 1778119679 | 19.44° C | - | - | 0 mm | 4.47 m/s, 68° | - | - |
| 1778119376 | 19.44° C | - | - | 0 mm | 2.68 m/s, 69° | - | - |
| 1778119077 | 19.44° C | - | - | 0 mm | 3.58 m/s, 51° | - | - |
| 1778118777 | 19.44° C | - | - | 0 mm | 2.24 m/s, 48° | - | - |
| 1778118475 | 19.44° C | - | - | 0 mm | 2.24 m/s, 58° | - | - |
| 1778118175 | 20° C | - | - | 0 mm | 1.79 m/s, 27° | - | - |
| 1778117876 | 20° C | - | - | 0 mm | 1.79 m/s, 51° | - | - |
| 1778117573 | 20.56° C | - | - | 0 mm | 3.58 m/s, 49° | - | - |
| 1778117273 | 20° C | - | - | 0 mm | 3.58 m/s, 51° | - | - |
| 1778116973 | 20° C | - | - | 0 mm | 3.13 m/s, 44° | - | - |
| 1778116671 | 20.56° C | - | - | 0 mm | 3.58 m/s, 73° | - | - |
| 1778116371 | 20.56° C | - | - | 0 mm | 3.13 m/s, 31° | - | - |
| 1778116071 | 20.56° C | - | - | 0 mm | 2.68 m/s, 46° | - | - |
| 1778115769 | 20.56° C | - | - | 0 mm | 4.47 m/s, 17° | - | - |
| 1778115469 | 20.56° C | - | - | 0 mm | 3.13 m/s, 44° | - | - |
| 1778115170 | 21.11° C | - | - | 0 mm | 2.68 m/s, 46° | - | - |
| 1778114866 | 21.11° C | - | - | 0 mm | 4.02 m/s, 38° | - | - |
| 1778114266 | 21.11° C | - | - | 0 mm | 3.58 m/s, 89° | - | - |
| 1778113964 | 21.11° C | - | - | 0 mm | 4.47 m/s, 45° | - | - |
| 1778113664 | 21.11° C | - | - | 0 mm | 4.02 m/s, 44° | - | - |
| 1778113365 | 21.11° C | - | - | 0 mm | 4.92 m/s, 52° | - | - |
| 1778112763 | 21.11° C | - | - | 0 mm | 4.92 m/s, 38° | - | - |
| 1778112463 | 21.67° C | - | - | 0 mm | 4.47 m/s, 42° | - | - |
| 1778111861 | 21.67° C | - | - | 0 mm | 3.58 m/s, 65° | - | - |
| 1778111258 | 21.67° C | - | - | 0 mm | 3.58 m/s, 80° | - | - |
* Rain latest hour (hover to see other rain measurements)
** Current wind speed in m/s (hover to see current wind gust speed)